Terminal Aerodrome Forecast
Issued by NWS

Home | Current Version | Previous Version | Graphics & Text | Print | Product List | Glossary On
Versions: 1 2 3 4 5 6 7 8 9 10 11 12 13 14 15 16
000
FTUS43 KMPX 271700
TAFRNH
TAF
KRNH 271720Z 2718/2818 17009G17KT P6SM SCT060 SCT250
     FM280000 18004KT P6SM SCT060
     FM280900 VRB03KT 4SM BR FEW040
     FM281400 19004KT P6SM FEW050 SCT250=

USA.gov is the U.S. government's official web portal to all federal, state and local government web resources and services.